Total_Precipitation_Accumulation
1.61 1.83 2.34 2.98 3.36 3.89 4.34 4.34 4.14 4.15 4.22 4.27 4.07 4.24 4.44 4.72 4.98 4.90 4.80 4.72 4.62 4.55 4.63 4.65 4.63 4.46 4.36 4.22 4.10 4.07 3.97 3.71 3.49 3.43 3.07 2.62 2.26 2.14 2.08 2.11 2.19 2.20 2.19
1.79 2.09 2.59 2.88 3.26 3.60 3.80 4.12 4.29 4.33 4.11 4.43 4.72 4.98 5.31 5.33 5.62 5.89 5.94 5.75 5.46 5.27 5.12 5.12 4.84 4.51 4.35 4.19 4.01 3.93 3.77 3.43 3.30 3.28 3.31 2.84 2.38 1.94 1.68 1.78 1.78 1.83 2.01
2.06 2.45 2.80 2.90 3.11 3.48 3.76 4.07 4.42 4.55 4.47 4.89 5.38 5.79 6.14 6.07 6.11 6.15 6.15 6.08 5.66 5.31 5.10 4.89 4.74 4.54 4.36 4.18 4.08 3.96 3.81 3.49 3.28 3.20 3.42 3.27 2.81 2.25 1.93 1.75 1.75 1.84 1.94
1.92 2.26 2.57 2.95 2.94 3.20 3.55 3.84 4.26 4.70 4.97 5.32 5.79 6.33 6.66 6.89 6.74 6.40 6.12 5.76 5.32 4.94 4.57 4.41 4.45 4.35 4.15 3.93 3.61 3.48 3.47 3.39 3.20 3.10 2.97 2.94 2.88 2.68 2.34 2.06 2.02 2.04 2.00
1.85 2.04 2.17 2.47 2.70 2.93 3.26 3.63 4.02 4.45 5.06 5.81 6.40 6.83 7.19 7.20 6.69 6.12 5.54 5.10 4.74 4.39 4.10 4.00 4.10 4.02 3.76 3.56 3.28 3.07 2.93 2.91 2.94 2.94 2.86 2.73 2.67 2.50 2.38 2.20 2.09 2.05 1.97
1.92 2.06 2.16 2.41 2.59 2.71 2.99 3.39 3.87 4.27 4.84 5.59 6.23 6.52 6.72 6.67 6.24 5.61 5.06 4.65 4.21 3.82 3.47 3.25 3.20 3.11 2.92 2.83 2.80 2.72 2.67 2.66 2.69 2.70 2.61 2.54 2.52 2.46 2.47 2.33 2.09 2.04 2.06
2.11 2.09 2.04 2.12 2.37 2.52 2.78 3.18 3.60 4.05 4.43 4.86 5.40 5.46 5.52 5.33 4.97 4.75 4.40 3.91 3.51 3.14 2.76 2.53 2.44 2.40 2.36 2.34 2.37 2.38 2.38 2.36 2.41 2.39 2.35 2.31 2.23 2.24 2.42 2.52 2.36 2.19 2.05
1.93 1.96 1.89 2.04 2.31 2.57 2.82 3.06 3.33 3.67 4.00 4.12 4.24 4.15 4.02 3.94 3.82 3.62 3.23 2.88 2.65 2.48 2.34 2.18 2.05 2.02 2.06 2.07 2.17 2.14 2.06 2.05 2.08 2.01 2.06 2.06 1.99 2.10 2.27 2.42 2.59 2.56 2.28
1.72 1.80 1.86 1.98 2.19 2.50 2.67 2.85 2.96 3.08 3.09 3.06 3.07 3.07 3.03 2.91 2.88 2.76 2.46 2.21 2.09 1.96 1.92 1.87 1.83 1.75 1.71 1.69 1.68 1.69 1.71 1.77 1.77 1.74 1.73 1.71 1.73 1.87 2.00 2.16 2.42 2.66 2.56
1.74 1.76 1.88 2.03 1.95 2.01 2.17 2.32 2.43 2.53 2.51 2.40 2.30 2.33 2.33 2.21 2.09 1.96 1.83 1.70 1.64 1.56 1.57 1.52 1.51 1.55 1.57 1.50 1.41 1.36 1.39 1.45 1.51 1.58 1.55 1.52 1.51 1.61 1.65 1.77 1.94 2.24 2.46
1.80 1.71 1.78 1.83 1.71 1.64 1.61 1.72 1.83 2.00 2.09 2.02 1.98 2.00 1.96 1.88 1.75 1.66 1.56 1.48 1.42 1.39 1.35 1.35 1.34 1.31 1.30 1.28 1.29 1.24 1.28 1.38 1.40 1.37 1.39 1.41 1.47 1.54 1.50 1.56 1.68 1.85 2.10
1.79 1.67 1.63 1.66 1.62 1.57 1.47 1.54 1.61 1.57 1.62 1.65 1.78 1.87 1.78 1.71 1.64 1.60 1.57 1.51 1.37 1.34 1.31 1.32 1.24 1.10 1.06 1.15 1.22 1.21 1.18 1.30 1.31 1.27 1.34 1.35 1.38 1.46 1.49 1.58 1.67 1.77 1.96
1.98 1.81 1.61 1.57 1.59 1.51 1.46 1.49 1.53 1.46 1.42 1.42 1.45 1.55 1.57 1.54 1.51 1.38 1.35 1.35 1.32 1.30 1.24 1.19 1.18 1.10 1.00 1.02 1.04 1.08 1.06 1.13 1.19 1.19 1.27 1.31 1.37 1.38 1.42 1.51 1.57 1.69 1.80
1.95 1.75 1.63 1.58 1.48 1.44 1.42 1.42 1.37 1.26 1.27 1.31 1.42 1.44 1.45 1.50 1.53 1.48 1.40 1.34 1.28 1.23 1.19 1.11 1.06 1.04 0.99 0.88 0.84 0.88 0.97 1.06 1.07 1.06 1.15 1.21 1.28 1.29 1.38 1.41 1.50 1.58 1.77
1.89 1.82 1.64 1.53 1.40 1.28 1.24 1.23 1.18 1.09 1.09 1.16 1.29 1.39 1.34 1.31 1.37 1.44 1.35 1.19 1.12 1.05 1.03 0.97 0.93 0.94 0.88 0.76 0.78 0.81 0.83 0.94 0.98 0.98 1.04 1.09 1.10 1.12 1.18 1.19 1.33 1.51 1.71
2.05 1.99 1.81 1.63 1.45 1.34 1.26 1.20 1.13 1.01 1.00 1.05 1.19 1.28 1.28 1.26 1.26 1.30 1.26 1.19 1.13 1.08 1.04 1.00 0.96 0.91 0.78 0.75 0.72 0.73 0.78 0.87 0.97 1.07 1.07 0.99 0.97 0.93 0.89 0.94 1.04 1.24 1.50
2.08 2.02 1.91 1.72 1.52 1.42 1.32 1.32 1.22 1.08 1.11 1.13 1.14 1.20 1.24 1.28 1.28 1.25 1.24 1.24 1.26 1.24 1.14 1.04 1.00 0.94 0.83 0.72 0.60 0.59 0.68 0.87 1.01 1.10 1.08 0.90 0.83 0.94 0.95 0.95 0.96 1.07 1.20
2.22 2.15 1.94 1.76 1.52 1.36 1.30 1.27 1.19 1.13 1.21 1.17 1.10 1.10 1.10 1.12 1.12 1.17 1.22 1.23 1.23 1.17 1.11 1.03 0.99 0.96 0.76 0.64 0.56 0.58 0.64 0.78 0.83 0.86 0.93 1.01 1.01 0.94 0.99 1.00 1.08 1.15 1.24
2.09 2.03 1.84 1.71 1.59 1.43 1.34 1.29 1.23 1.22 1.17 1.09 1.03 0.97 0.91 0.95 0.96 1.02 1.15 1.26 1.24 1.12 1.02 0.94 0.93 0.90 0.76 0.68 0.63 0.63 0.67 0.74 0.71 0.68 0.73 0.80 0.86 0.85 0.92 1.04 1.22 1.27 1.38
1.56 1.53 1.47 1.44 1.43 1.32 1.27 1.27 1.27 1.23 1.13 1.02 0.93 0.85 0.86 0.92 0.93 0.98 1.09 1.17 1.22 1.10 0.91 0.84 0.86 0.82 0.79 0.69 0.58 0.56 0.58 0.69 0.71 0.73 0.78 0.75 0.68 0.73 0.83 1.04 1.30 1.47 1.52
1.32 1.23 1.22 1.29 1.29 1.20 1.23 1.26 1.21 1.13 0.98 0.89 0.86 0.86 0.89 0.96 0.95 1.05 1.13 1.09 1.00 0.98 0.91 0.85 0.84 0.75 0.63 0.54 0.45 0.45 0.51 0.61 0.70 0.76 0.84 0.84 0.69 0.63 0.71 0.92 1.16 1.34 1.40
1.41 1.28 1.25 1.22 1.18 1.18 1.26 1.27 1.17 0.98 0.86 0.84 0.86 0.92 0.93 0.87 0.85 1.01 1.07 0.99 0.95 0.94 0.92 0.91 0.85 0.72 0.58 0.49 0.43 0.38 0.38 0.43 0.62 0.80 0.83 0.83 0.77 0.72 0.78 0.93 1.10 1.23 1.42
1.41 1.33 1.25 1.18 1.12 1.11 1.17 1.16 0.99 0.78 0.73 0.81 0.94 0.99 0.92 0.98 0.95 0.94 0.96 0.96 0.97 0.89 0.83 0.84 0.79 0.72 0.64 0.55 0.43 0.38 0.37 0.41 0.53 0.71 0.78 0.75 0.71 0.81 1.02 1.15 1.25 1.41 1.64
1.22 1.13 1.06 1.02 0.96 0.90 0.88 0.85 0.71 0.66 0.74 0.86 0.94 0.95 0.96 1.04 1.02 0.92 0.79 0.76 0.78 0.76 0.72 0.72 0.68 0.69 0.70 0.57 0.48 0.48 0.47 0.50 0.56 0.70 0.83 0.88 0.88 1.03 1.22 1.35 1.45 1.57 1.67
1.08 1.01 0.94 0.85 0.74 0.69 0.65 0.61 0.58 0.61 0.72 0.79 0.85 0.85 0.85 0.92 0.98 0.87 0.71 0.65 0.59 0.53 0.52 0.53 0.51 0.57 0.58 0.48 0.45 0.43 0.48 0.56 0.61 0.70 0.87 1.00 1.03 1.14 1.29 1.42 1.49 1.54 1.55
0.95 0.96 0.87 0.77 0.68 0.64 0.60 0.56 0.53 0.57 0.69 0.73 0.71 0.67 0.71 0.76 0.79 0.78 0.69 0.51 0.36 0.29 0.26 0.28 0.32 0.33 0.34 0.32 0.32 0.34 0.40 0.47 0.58 0.74 1.01 1.10 1.08 1.12 1.20 1.31 1.42 1.43 1.41